Regional Weather Roundup
Issued by NWS

Home | Current Version | Previous Version | Graphics & Text | Print | Product List | Glossary On
Versions: 1 2 3 4 5 6 7 8 9 10 11 12 13 14 15 16 17 18 19 20 21 22 23 24 25 26 27 28 29 30 31 32 33 34 35 36 37 38 39 40 41 42 43 44 45 46 47 48 49 50
000
ASUS43 KMKX 031700
RWRWI

WISCONSIN REGIONAL WEATHER ROUNDUP
NATIONAL WEATHER SERVICE MILWAUKEE/SULLIVAN WI
1200 PM CDT THU SEP 03 2015

NOTE: "FAIR" INDICATES FEW OR NO CLOUDS BELOW 12,000 FEET WITH NO
SIGNIFICANT WEATHER AND/OR OBSTRUCTIONS TO VISIBILITY.

WIZ001-002-006>008-014>016-023>028-031800-
NORTHWEST WISCONSIN

CITY           SKY/WX    TMP DP  RH WIND       PRES   REMARKS
SUPERIOR ARPT  FOG       60  60 100 E6        30.00S VSB 1/2
ASHLAND        CLOUDY    65  65 100 N7        30.00F FOG
HAYWARD        CLOUDY    71  64  78 VRB7      30.00S
SIREN          SUNNY     73  65  74 E8        29.96F
CUMBERLAND     PTSUNNY   72  64  78 E7        29.97F
RICE LAKE      SUNNY     74  65  74 E7        29.98F
CHETEK         MOSUNNY  N/A N/A N/A E3        29.97F
LADYSMITH      SUNNY     76  66  71 E7        30.00S
EAU CLAIRE     CLOUDY    72  64  78 E7        29.96R
MENOMONIE      CLOUDY    73  68  83 E8        29.97S
NEW RICHMOND   CLOUDY    73  68  84 E9        29.96S
OSCEOLA        MOSUNNY   77  73  88 E9        29.97S
$$

WIZ003>005-009-010-017-018-031800-
NORTH CENTRAL WISCONSIN

CITY           SKY/WX    TMP DP  RH WIND       PRES   REMARKS
MANITOWISH WTR MOSUNNY   74  64  70 E6        30.01S
ARBOR VITAE    SUNNY     76  65  68 SE7       30.00F
WOODRUFF       SUNNY     76  65  68 SE7       30.00F
RHINELANDER    PTSUNNY   73  64  73 SE6       30.01F
EAGLE RIVER    PTSUNNY   73  62  67 E6        30.00F
LAND O LAKES   PTSUNNY   74  63  69 NE7       30.02F
PHILLIPS       MOSUNNY   74  64  70 E6        29.99F
TOMAHAWK       PTSUNNY   72  64  77 E6        30.01S
MEDFORD        CLOUDY    68  65  89 NE6       30.00S
MERRILL        CLOUDY    70  65  85 NE3       30.00S
$$

WIZ029-030-035-036-043>047-031800-
CENTRAL WISCONSIN

CITY           SKY/WX    TMP DP  RH WIND       PRES   REMARKS
WAUSAU         CLOUDY    73  65  75 N7        29.97F
MOSINEE        CLOUDY    68  66  94 NE5       29.99S
MARSHFIELD     CLOUDY    72  64  76 NE8       29.98S
STEVENS POINT  CLOUDY    69  64  85 NE6       29.98S
WAUPACA        CLOUDY    74  69  81 N5        29.96S
WAUTOMA        PTSUNNY   73  68  83 NE7       29.96S
WISC RAPIDS    CLOUDY    73  64  73 NE8       29.98S
CAMP DOUGLAS   CLOUDY    75  75 100 VRB2      29.95S
$$

WIZ011>013-019>022-031-037>040-048>050-031800-
NORTHEAST WISCONSIN

CITY           SKY/WX    TMP DP  RH WIND       PRES   REMARKS
ANTIGO         CLOUDY    69  65  88 NE7       30.01R
SHAWANO        NOT AVBL
OCONTO         CLOUDY    68  68 100 NE7       29.95R
STURGEON BAY   CLOUDY    66  64  94 N9        29.96S
GREEN BAY      CLOUDY    74  68  81 N8        29.95R
MANITOWOC      NOT AVBL
APPLETON       CLOUDY    70  68  94 NW8       29.95R
CLINTONVILLE   CLOUDY    72  64  78 N7        29.96R
OSHKOSH        CLOUDY    72  66  81 N8        29.95S
$$

WIZ032>034-041-042-053>061-031800-
SOUTHWEST WISCONSIN

CITY           SKY/WX    TMP DP  RH WIND       PRES   REMARKS
LA CROSSE      SUNNY     84  71  65 VRB3      29.92S HX  89
SPARTA         PTSUNNY   80  69  68 E8        29.95R HX  83
VIROQUA          N/A     82  73  73 NE3       29.95S HX  87
BOSCOBEL       MOSUNNY   87  72  60 VRB3      29.92S HX  93
PRAIRIE DU CHI SUNNY     83  69  61 SW3       29.92S HX  87
PLATTEVILLE    SUNNY     83  73  72 S3        29.95S HX  88
$$

WIZ056-057-062-063-064-067-068-031800-
SOUTH CENTRAL WISCONSIN

CITY           SKY/WX    TMP DP  RH WIND       PRES   REMARKS
REEDSBURG      MOSUNNY   80  72  76 CALM      29.93S HX  84
BARABOO/DELLS  CLOUDY    82  69  64 E7        29.95R HX  85
LONE ROCK      NOT AVBL
MINERAL POINT  SUNNY     82  72  69 CALM      29.95S HX  87
MADISON        MOSUNNY   84  71  65 N6        29.93R HX  89
MIDDLETON      SUNNY     85  70  60 W3        29.94S HX  89
WATERTOWN      PTSUNNY   82  74  78 NW5       29.93R HX  88
MONROE         SUNNY     82  70  65 W3        29.95S HX  86
JANESVILLE     MOSUNNY   84  70  61 W6        29.93S HX  88
$$

WIZ051-052-058>065-066-070>072-031800-
SOUTHEAST WISCONSIN

CITY           SKY/WX    TMP DP  RH WIND       PRES   REMARKS
MILWAUKEE      MOSUNNY   85  71  63 SW5       29.92S HX  90
WAUKESHA       MOSUNNY   81  70  69 SW6       29.95S HX  84
MILWAUKEE/TIMM MOSUNNY   82  66  57 NW3       29.93S HX  85
RACINE         CLOUDY    84  70  62 W7        29.94S HX  88
BURLINGTON     MOSUNNY   82  69  65 W3        29.94S HX  85
KENOSHA        CLOUDY    83  71  67 W6        29.94S HX  87
FOND DU LAC    CLOUDY    72  67  84 NE7       29.96R
SHEBOYGAN      CLOUDY    74  68  81 NW8       29.94S
WEST BEND      CLOUDY    75  68  78 NW7       29.94S
JUNEAU         CLOUDY    75  71  85 N6        29.95S
$$

LSZ147-162-031800-
LAKE SUPERIOR

STATION/POSITION TIME  TEMP    WIND        PRES    WAVE
                       AIR SEA DIR/SP/G            HT/PER
                 (UTC) (F)     (DEG/KT/KT) (MB)    (FT/S)
W MID LAKE BUOY  1550   58 57   40/  6/  6 1016.3F   0
DEVILS ISLAND    1600   57      50/  6/  7 1016.6R
PORT WING        1600   59      30/ 11/ 12 1015.9S
SAXON HARBOR     1640   63      20/  3/  5 1015.6S
$$

LMZ867-665-643>646-031800-
LAKE MICHIGAN

STATION/POSITION TIME  TEMP    WIND        PRES    WAVE
                       AIR SEA DIR/SP/G            HT/PER
                 (UTC) (F)     (DEG/KT/KT) (MB)    (FT/S)
CHAMBERS ISLAND  1600   65     360/ 11/ 12 1013.9
S GREEN BAY BUOY 1600   67 66   20/ 14/ 17 1015.0
N MID LAKE BUOY  1550   67 66  120/  8/  8 1013.1R   2/ 4
NORTHPORT PIER   1600   68      50/  5/  8 1013.9R
SISTER BAY       1611   72      10/  3/  6   N/A
ALGOMA LAKESHORE 1614           20/  7/ 10   N/A
KEWAUNEE LAKESHO 1600   71     330/  6/  9   N/A
SHEBOYGAN LAKESH 1600   65      50/  2/  3 1013.7R
PORT WASHINGTON  1600   63      30/  6/  9 1013.9R
ATWATER BUOY     1600   70      20/  4/  4 1014.6R
MILWAUKEE LAKESH 1610   81     290/  5/  7   N/A
S MID LAKE BUOY  1550   72 71  220/  8/ 10 1013.1R   1/ 3
KENOSHA   LAKESH 1600   81     320/  6/ 10 1013.2S
$$

TC  - TEMPERATURE IN CELSIUS
VSB - VISIBILITY IN STATUTE MILES
WCI - WIND CHILL INDEX
HX  - HEAT INDEX



USA.gov is the U.S. government's official web portal to all federal, state and local government web resources and services.